"Pseudo-MPEC" for P12pEue

Created 2026 Sep 5 10:35:11 UT using Find_Orb

Click here for an explanation of pseudo-MPECs

 
 Astrometry: 
     P12pEue*0C2026 09 04.29575620 30 04.238-28 12 16.09   ~94M5 21.02wXNEOCPF51
     P12pEue 0C2026 09 04.30573820 30 04.866-28 11 27.42   ~94M5 21.17wXNEOCPF51
     P12pEue 0C2026 09 04.31575120 30 05.484-28 10 38.46   ~94M5 21.28wXNEOCPF51

Station data:
(F51) Pan-STARRS 1, Haleakala  (N20.707234 W156.255910)  US/Hawaii.
   Observers J. Herman, T. Lowe, P. Minguez, A. Schultz, I. Smith. Measurers
   K. Chambers, T. de Boer, J. Fairlamb, H. Gao, M. Huber, C.-C. Lin, E.
   Magnier, Y. Ramanjooloo, R. Wainscoat, R. Weryk. 1.8-m Ritchey-Chrétien +
   CCD.

Orbital elements:  P12pEue
   Perihelion 2026 Jun 8.070026 +/- 35.1 TT =  1:40:50.2 (JD 2461199.570026)
Epoch 2026 Sep  4.0 TT = JDT 2461287.5   Earth MOID: 0.0704      AutoNEOCP
M  64.539363309 +/- 35              (J2000 ecliptic)
n   0.733985925 +/- 0.507           Peri.  260.500509 +/- 70
a   1.217150348 +/- 0.56            Node   342.493718 +/- 70
e   0.24384288 +/- 0.26             Incl.   11.980376 +/- 14
P   1.343/490.463d         H 22.97  G  0.15   U 12.3  SR
q 0.920356892 +/- 0.435    Q 1.513943803 +/- 28.9
From 3 observations 2026 Sept. 4 (28.8 min); mean residual 0".02
Residuals in arcseconds: 
260904 F51  .02-  .01+    260904 F51  .04+  .03-    260904 F51  .02-  .01+    

Ephemerides (geocentric):
Date (UTC) HH   RA             Dec           delta  r     elong  mag " sig PA
---- --------  ------------   ------------  ------ ------ -----  --- --------
2026 09 05 11  20 31 38.758   -26 39 15.92  .19133 1.1622 140.5 21.1 1171 126
2026 09 05 12  20 31 42.129   -26 36 03.00  .19155 1.1624 140.5 21.1 1229 127
2026 09 05 13  20 31 45.498   -26 32 50.48  .19177 1.1626 140.5 21.1 1289 129
2026 09 05 14  20 31 48.864   -26 29 38.36  .19199 1.1627 140.5 21.1 1352 131
2026 09 05 15  20 31 52.227   -26 26 26.62  .19222 1.1629 140.5 21.1 1418 132
2026 09 05 16  20 31 55.587   -26 23 15.28  .19244 1.1631 140.5 21.1 1487 134
2026 09 05 17  20 31 58.945   -26 20 04.34  .19266 1.1632 140.4 21.1 1558 135
2026 09 05 18  20 32 02.299   -26 16 53.78  .19289 1.1634 140.4 21.1 1632 136
2026 09 05 19  20 32 05.651   -26 13 43.61  .19311 1.1636 140.4 21.1 1709 137
2026 09 05 20  20 32 09.001   -26 10 33.83  .19333 1.1637 140.4 21.1 1790 138
2026 09 05 21  20 32 12.347   -26 07 24.44  .19356 1.1639 140.4 21.1 1873 139
2026 09 05 22  20 32 15.691   -26 04 15.44  .19378 1.1640 140.4 21.1 1960 140
2026 09 05 23  20 32 19.032   -26 01 06.83  .19401 1.1642 140.4 21.1 2050 140
2026 09 06 00  20 32 22.371   -25 57 58.60  .19423 1.1644 140.4 21.1 2144 141
2026 09 06 01  20 32 25.707   -25 54 50.76  .19446 1.1645 140.4 21.1 2241 141
2026 09 06 02  20 32 29.040   -25 51 43.30  .19469 1.1647 140.4 21.1 2343 142
2026 09 06 03  20 32 32.371   -25 48 36.22  .19491 1.1649 140.4 21.1 2449 142
2026 09 06 04  20 32 35.699   -25 45 29.53  .19514 1.1650 140.4 21.2 2559 143
2026 09 06 05  20 32 39.025   -25 42 23.22  .19536 1.1652 140.4 21.2 2674 143
2026 09 06 06  20 32 42.348   -25 39 17.29  .19559 1.1653 140.3 21.2 2795 144
2026 09 06 07  20 32 45.669   -25 36 11.74  .19582 1.1655 140.3 21.2 2921 144
2026 09 06 08  20 32 48.987   -25 33 06.58  .19604 1.1657 140.3 21.2 3053 144
2026 09 06 09  20 32 52.303   -25 30 01.79  .19627 1.1658 140.3 21.2 3191 144
2026 09 06 10  20 32 55.617   -25 26 57.38  .19650 1.1660 140.3 21.2 3336 145
2026 09 06 11  20 32 58.928   -25 23 53.34  .19673 1.1662 140.3 21.2 3488 145
2026 09 06 12  20 33 02.236   -25 20 49.69  .19696 1.1663 140.3 21.2 3649 145
2026 09 06 13  20 33 05.543   -25 17 46.41  .19718 1.1665 140.3 21.2 3818 145
2026 09 06 14  20 33 08.847   -25 14 43.50  .19741 1.1666 140.3 21.2 3997 146
2026 09 06 15  20 33 12.149   -25 11 40.97  .19764 1.1668 140.3 21.2 4186 146
2026 09 06 16  20 33 15.448   -25 08 38.81  .19787 1.1670 140.3 21.2 4387 146
2026 09 06 17  20 33 18.745   -25 05 37.02  .19810 1.1671 140.2 21.2 4600 146
2026 09 06 18  20 33 22.040   -25 02 35.61  .19833 1.1673 140.2 21.2 4827 146
2026 09 06 19  20 33 25.333   -24 59 34.57  .19856 1.1675 140.2 21.2 5070 146
2026 09 06 20  20 33 28.624   -24 56 33.89  .19879 1.1676 140.2 21.2 5329 147
2026 09 06 21  20 33 31.912   -24 53 33.59  .19902 1.1678 140.2 21.2 5608 147
2026 09 06 22  20 33 35.198   -24 50 33.66  .19925 1.1679 140.2 21.2 5907 147
2026 09 06 23  20 33 38.482   -24 47 34.09  .19948 1.1681 140.2 21.2 6230 147
2026 09 07 00  20 33 41.764   -24 44 34.89  .19971 1.1683 140.2 21.2 6580 147
2026 09 07 01  20 33 45.044   -24 41 36.06  .19994 1.1684 140.2 21.2 6959 147
2026 09 07 02  20 33 48.322   -24 38 37.59  .20017 1.1686 140.2 21.2 7372 148
2026 09 07 03  20 33 51.598   -24 35 39.49  .20041 1.1688 140.1 21.2 7822 148
2026 09 07 04  20 33 54.872   -24 32 41.75  .20064 1.1689 140.1 21.2 8316 148
2026 09 07 05  20 33 58.143   -24 29 44.37  .20087 1.1691 140.1 21.2 8858 148
2026 09 07 06  20 34 01.413   -24 26 47.36  .20110 1.1693 140.1 21.2 9456 148
2026 09 07 07  20 34 04.681   -24 23 50.71  .20134 1.1694 140.1 21.2 169' 149
2026 09 07 08  20 34 07.946   -24 20 54.42  .20157 1.1696 140.1 21.2 181' 149
2026 09 07 09  20 34 11.210   -24 17 58.49  .20180 1.1697 140.1 21.2 195' 149
2026 09 07 10  20 34 14.472   -24 15 02.92  .20204 1.1699 140.1 21.2 210' 149